This is the latest recevied weather packets stored in our database for station/object W4SKW. If no packets are shown the sender has not sent any weather packets the latest 10 day(s).
| Time | Temp. | Humidity | Pressure | Rain* | Wind** | Luminosity | Snow |
|---|---|---|---|---|---|---|---|
| 1777465760 | 17.22° C | 98% | 1015.5 hPa | 0 mm | - | 104 W/m² | - |
| 1777465455 | 17.22° C | 98% | 1015.4 hPa | 0 mm | - | 92 W/m² | - |
| 1777465154 | 17.22° C | 98% | 1015.4 hPa | 0 mm | - | 57 W/m² | - |
| 1777464850 | 17.22° C | 98% | 1015.3 hPa | 0 mm | - | 46 W/m² | - |
| 1777464545 | 17.22° C | 98% | 1015.5 hPa | 0 mm | - | 55 W/m² | - |
| 1777464241 | 16.67° C | 98% | 1015.6 hPa | 0 mm | - | 64 W/m² | - |
| 1777463936 | 16.67° C | 98% | 1015.6 hPa | 0 mm | - | 50 W/m² | - |
| 1777463633 | 16.67° C | 98% | 1015.5 hPa | 0 mm | - | 33 W/m² | - |
| 1777463327 | 16.67° C | 98% | 1015.6 hPa | 0 mm | - | 40 W/m² | - |
| 1777463024 | 16.67° C | 98% | 1015.7 hPa | 0 mm | - | 37 W/m² | - |
| 1777462719 | 16.67° C | 98% | 1016 hPa | 0 mm | - | 22 W/m² | - |
| 1777462415 | 16.67° C | 98% | 1016 hPa | 0 mm | - | 21 W/m² | - |
| 1777462112 | 16.67° C | 98% | 1016 hPa | 0 mm | - | 19 W/m² | - |
| 1777461808 | 16.67° C | 98% | 1016 hPa | 0 mm | - | 17 W/m² | - |
| 1777461504 | 16.67° C | 98% | 1016 hPa | 0 mm | - | 7 W/m² | - |
| 1777461200 | 16.67° C | 98% | 1016 hPa | 0 mm | - | 4 W/m² | - |
| 1777460896 | 16.67° C | 98% | 1016 hPa | 0 mm | - | 4 W/m² | - |
| 1777460591 | 16.67° C | 98% | 1016 hPa | 0 mm | - | 3 W/m² | - |
| 1777460288 | 16.67° C | 98% | 1016.1 hPa | 0 mm | - | 1 W/m² | - |
| 1777459985 | 16.67° C | 98% | 1016.1 hPa | 0 mm | - | 1 W/m² | - |
| 1777459681 | 16.67° C | 98% | 1015.5 hPa | 0 mm | - | 0 W/m² | - |
| 1777459377 | 16.67° C | 98% | 1015.5 hPa | 0 mm | - | 0 W/m² | - |
| 1777459076 | 16.67° C | 98% | 1015.2 hPa | 0 mm | - | 0 W/m² | - |
| 1777458773 | 16.67° C | 98% | 1015 hPa | 0 mm | - | 0 W/m² | - |
| 1777458469 | 16.67° C | 97% | 1014.5 hPa | 0 mm | - | 0 W/m² | - |
* Rain latest hour (hover to see other rain measurements)
** Current wind speed in m/s (hover to see current wind gust speed)